Regional Weather Roundup
Issued by NWS

Home | Current Version | Previous Version | Graphics & Text | Print | Product List | Glossary Off
Versions: 1 2 3 4 5 6 7 8 9 10 11 12 13 14 15 16 17 18 19 20 21 22 23 24 25 26 27 28 29 30 31 32 33 34 35 36 37 38 39 40 41 42 43 44 45 46 47 48 49 50

000
ASUS43 KMPX 240010
RWRMN
WEATHER ROUNDUP FOR MINNESOTA
NATIONAL WEATHER SERVICE TWIN CITIES/CHANHASSEN MN
600 PM CST TUE JAN 23 2018


NOTE: "FAIR" INDICATES FEW OR NO CLOUDS BELOW 12,000 FEET WITH NO
SIGNIFICANT WEATHER AND/OR OBSTRUCTIONS TO VISIBILITY. N/A MEANS
CURRENT SKY AND/OR WEATHER CONDITIONS ARE NOT AVAILABLE.

MNZ060>063-068>070-240100-
   Twin Cities Metro

CITY           SKY/WX    TMP DP  RH WIND       PRES   REMARKS
TWIN CITIES    MOCLDY    24  16  71 VRB3      30.14R
6HR MIN TEMP:  22; 6HR MAX TEMP:  28;

ST PAUL        MOCLDY    24  16  71 N6        30.15R WCI  17
CRYSTAL        FAIR      20  11  68 CALM      30.12R
BLAINE         PTCLDY    23  16  74 CALM      30.12R
LAKEVILLE      FAIR      16  12  86 CALM      30.13R
EDEN PRAIRIE   FAIR      25  13  60 CALM      30.13R
6HR MIN TEMP:  22; 6HR MAX TEMP:  29;

SOUTH ST PAUL  FAIR      23  17  75 CALM      30.14R
LAKE ELMO      MOCLDY    19  12  73 NE5       30.14S WCI  13
$$
MNZ001>005-007-008-013>017-022>024-027-028-240100-
   Northwest Minnesota

CITY           SKY/WX    TMP DP  RH WIND       PRES   REMARKS
BEMIDJI        FAIR      16   9  73 CALM      30.09R
HALLOCK        CLOUDY    21  19  93 S9        30.10S FOG     WCI  11
ROSEAU         FLURRIES  19  16  86 S5        30.11S WCI  13
WARROAD        FLURRIES  14   9  79 CALM      30.11F
THIEF RVR FALL FLURRIES  19  17  92 S6        30.12S WCI  11
CROOKSTON      MOCLDY    21  19  93 S6        30.13S FOG     WCI  14
FOSSTON        CLOUDY    18  14  86 SW7       30.12S WCI   8
DETROIT LAKES  CLOUDY    21  19  93 SW5       30.12S WCI  15
MOORHEAD       CLOUDY    21  19  93 CALM      30.15R
PARK RAPIDS    FAIR      16  10  77 W7        30.09R WCI   6
MAHNOMEN       CLOUDY    19  16  88 SW6       30.11S WCI  11
$$
MNZ006-009>011-018-025>026-240100-
   North Central Minnesota

CITY           SKY/WX    TMP DP  RH WIND       PRES   REMARKS
BAUDETTE       FAIR      13   1  59 E7        30.09S WCI   3
FLAG ISLAND    CLOUDY    12   5  73 CALM      30.10S
INTL FALLS     FAIR       5  -5  63 CALM      30.12R
6HR MIN TEMP:   5; 6HR MAX TEMP:  17;

WASKISH        FAIR       9   3  78 CALM      30.10S
BIG FORK       FAIR      12   5  73 CALM      30.10R
LONGVILLE      FAIR      16   9  73 CALM      30.10R
GRAND RAPIDS   FAIR      13   7  77 CALM      30.11R
CRANE LAKE     FAIR       1  -4  78 CALM      30.15R
ORR            FAIR      10   0  61 CALM      30.08R
COOK           FAIR      10   1  67 CALM      30.11R
WALKER         FAIR      16   4  58 CALM      30.09S
$$
MNZ012-019>021-037-240100-
   Northeast Minnesota

CITY           SKY/WX    TMP DP  RH WIND       PRES   REMARKS
DULUTH         FAIR      19   4  51 CALM      30.07R
6HR MIN TEMP:  16; 6HR MAX TEMP:  23;

HIBBING        FAIR       8   1  73 CALM      30.09R
EVELETH        FAIR      48  37  64 CALM      30.10R
DULUTH HARBOR  FAIR      21   9  58 S3        30.14R
TWO HARBORS    FAIR      19   7  58 N3        30.08R
SILVER BAY     FAIR      18  -2  41 CALM      30.09R
GRAND MARAIS     N/A     17  -7  34 N9G17     30.14R WCI   6
G MARAIS ARPRT FAIR       7 -11  43 CALM      30.06R
$$
MNZ029>031-032-039>041-046>048-054>057-064-240100-
   West Central Minnesota

CITY           SKY/WX    TMP DP  RH WIND       PRES   REMARKS
FERGUS FALLS   CLOUDY    21  19  93 W7        30.14R WCI  13
WHEATON        CLOUDY    25  19  80 W5        30.17R WCI  19
MORRIS         CLOUDY    25  19  80 W7        30.13R WCI  17
ALEXANDRIA     FAIR      22  16  78 W9        30.11R WCI  12
ELBOW LAKE     CLOUDY    22  19  87 SW8       30.13S WCI  12
WADENA         FAIR      19  14  79 W5        30.11R WCI  13
GLENWOOD       FAIR      21  18  86 W8        30.12R WCI  12
APPLETON       CLOUDY    27  19  74 CALM      30.15R
BENSON         CLOUDY    25  18  74 W7        30.15S WCI  17
MADISON        CLOUDY    28  23  80 W6        30.15R WCI  22
WILLMAR        FAIR      25  19  80 W6        30.16R WCI  18
$$
MNZ033>034-036-042>043-049>051-058-059-240100-
   Central Minnesota

CITY           SKY/WX    TMP DP  RH WIND       PRES   REMARKS
ST CLOUD       FAIR      24  12  60 CALM      30.12R
6HR MIN TEMP:  23; 6HR MAX TEMP:  28;

SAUK CENTRE      N/A     24  17  77 W5        30.11R WCI  18
PAYNESVILLE    FAIR      24  17  76 W3        30.13R
AITKIN         FAIR      16   9  73 CALM      30.09R
PINE RIVER     FAIR      18   9  68 CALM      30.13R
BRAINERD       FAIR      17   8  67 CALM      30.10R
STAPLES        FAIR      16  10  79 W6        30.11R WCI   7
LONG PRAIRIE   FAIR      23  16  74 SW3       30.11R
LITTLE FALLS   FAIR      23   9  54 CALM      30.12R
LITCHFIELD     FAIR      27  18  69 CALM      30.13R
BUFFALO        FAIR      24  12  61 CALM      30.14R
MAPLE LAKE     FAIR      25  16  67 MISG      30.13S
HUTCHINSON     FAIR      26  18  73 CALM      30.14R
$$
MNZ037-044-045-052-053-240100-
   East Central Minnesota

CITY           SKY/WX    TMP DP  RH WIND       PRES   REMARKS
PRINCETON      FAIR      21  14  73 CALM      30.12R
MORA           FAIR      18  10  73 CALM      30.14R
CAMBRIDGE      FAIR      21  10  63 CALM      30.13S
RUSH CITY      FAIR      16   9  74 CALM      30.14R
MOOSE LAKE     FAIR      18   9  68 CALM      30.09S
HINCKLEY       FAIR      19  10  68 CALM      30.12R
CLOQUET        FAIR      16   5  62 CALM      30.09R
MCGREGOR       FAIR      19  10  68 CALM      30.11R
$$
MNZ071>073-080-081-089-090-097-098-240100-
   Southwest Minnesota

CITY           SKY/WX    TMP DP  RH WIND       PRES   REMARKS
MONTEVIDEO     CLOUDY    25  19  80 CALM      30.15S
GRANITE FALLS  CLOUDY    28  21  77 W6        30.16S WCI  21
CANBY          CLOUDY    27  23  84 NW8       30.16R WCI  19
MARSHALL       CLOUDY    25  21  85 W9        30.15R WCI  15
REDWOOD FALLS  PTCLDY    24  18  77 W8        30.14R WCI  15
OLIVIA         CLOUDY    28  21  74 W7        30.14R WCI  21
PIPESTONE      CLOUDY    21  21 100 W9        30.12R WCI  11
WINDOM         CLOUDY    21   9  58 W7        30.14R WCI  13
WORTHINGTON    CLOUDY    22  20  92 W8        30.14R WCI  12
JACKSON        CLOUDY    23  19  86 W5        30.13F WCI  17
TRACY          CLOUDY    26  22  86 W5        30.13R WCI  20
SLAYTON        CLOUDY    23  20  90 W7        30.13S WCI  14
$$
MNZ065>067-074>077-082>085-091>093-240100-
   South Central Minnesota

CITY           SKY/WX    TMP DP  RH WIND       PRES   REMARKS
MANKATO        CLOUDY    21  15  78 W6        30.15R WCI  13
NEW ULM        CLOUDY    21  16  79 W7        30.14R WCI  13
ST JAMES       MOCLDY    21  18  86 W7        30.16R WCI  13
FAIRMONT       CLOUDY    19  16  88 W7        30.16R WCI  10
GLENCOE        FAIR      25  16  68 CALM      30.13R
FARIBAULT      FAIR      16  12  86 CALM      30.13R
OWATONNA       FAIR       9   7  92 CALM      30.13R
WASECA         FAIR      14  10  85 SW3       30.15R
ALBERT LEA     FAIR      18  12  79 CALM      30.13R
$$
MNZ078>079-086>088-094>096-240100-
   Southeast Minnesota

CITY           SKY/WX    TMP DP  RH WIND       PRES   REMARKS
ROCHESTER      FAIR      15  13  91 W5        30.11R WCI   8
6HR MIN TEMP:  15; 6HR MAX TEMP:  21;

RED WING       FAIR      19  10  68 CALM      30.14R
STANTON        FAIR      16  12  84 S3        30.13R
DODGE CENTER   FAIR      12  10  92 CALM      30.11R
WINONA         FAIR      23  18  80 W3        30.14R
PRESTON        CLOUDY    19  15  84 N7        30.12R WCI  10
$$
ABBREVIATIONS USED IN REMARKS
   TC - TEMPERATURES IN CELSIUS
  WCI - WIND CHILL INDEX
   HX - HEAT INDEX
  VSB - VISIBILITY
$$



USA.gov is the U.S. government's official web portal to all federal, state and local government web resources and services.